Keps
Threads by month
- ----- 2023 -----
- December
- November
- October
- September
- August
- July
- June
- May
- April
- March
- February
- January
- ----- 2022 -----
- December
- November
- October
- September
- August
- July
- June
- May
- April
- March
- February
- January
- ----- 2021 -----
- December
- November
- October
- September
- August
- July
- June
- May
- April
- March
- February
- January
- ----- 2020 -----
- December
- November
- October
- September
- August
- July
- June
- May
- April
- March
- February
- January
- ----- 2019 -----
- December
- November
- October
- September
- August
- July
- June
- May
- April
- March
- February
- January
- ----- 2018 -----
- December
- November
- October
- September
- August
- July
- June
- May
- April
- March
- February
- January
- ----- 2017 -----
- December
- November
- October
- September
- August
- July
- June
- May
- April
- March
- February
- January
- ----- 2016 -----
- December
- November
- October
- September
- August
- July
- June
- May
- April
- March
- February
- January
- ----- 2015 -----
- December
- November
- October
- September
- August
- July
- June
- May
- April
- March
- February
- January
- ----- 2014 -----
- December
- November
- October
- September
- August
- July
- June
- May
- April
- March
- February
- January
- ----- 2013 -----
- December
- November
- October
- September
- August
- July
- June
- May
- April
- March
- February
- January
- ----- 2012 -----
- December
- November
- October
- September
- August
- July
- June
- May
- April
- March
- February
- January
- ----- 2011 -----
- December
- November
- October
- September
- August
- July
- June
- May
- April
- March
- February
- January
- ----- 2010 -----
- December
- November
- October
- September
- August
- July
- June
- May
- April
- March
- February
- January
- ----- 2009 -----
- December
- November
- October
- September
- August
- July
- June
- May
- April
- March
- February
- January
- ----- 2008 -----
- December
- November
- October
- September
- August
- July
- June
- May
- April
- March
- February
- January
- ----- 2007 -----
- December
- November
- October
- September
- August
- July
- June
- May
- April
- March
- February
- January
- ----- 2006 -----
- December
- November
- October
- September
August 2016
- 1 participants
- 4 discussions
SB KEPS @ AMSAT $ORB16238.N
2Line Orbital Elements 16238.AMSAT
HR AMSAT ORBITAL ELEMENTS FOR AMATEUR SATELLITES IN NASA FORMAT
FROM WA5QGD FORT WORTH,TX August 25, 2016
BID: ORB16238.N
DECODE 2-LINE ELSETS WITH THE FOLLOWING KEY:
1 AAAAAU 00 0 0 BBBBB.BBBBBBBB .CCCCCCCC 00000-0 00000-0 0 DDDZ
2 AAAAA EEE.EEEE FFF.FFFF GGGGGGG HHH.HHHH III.IIII JJ.JJJJJJJJKKKKKZ
KEY: A-CATALOGNUM B-EPOCHTIME C-DECAY D-ELSETNUM E-INCLINATION F-RAAN
G-ECCENTRICITY H-ARGPERIGEE I-MNANOM J-MNMOTION K-ORBITNUM Z-CHECKSUM
TO ALL RADIO AMATEURS BT
AO-07
1 07530U 74089B 16238.42856551 -.00000029 00000-0 91223-4 0 9992
2 07530 101.5819 207.5173 0011896 174.2318 342.4467 12.53622667911795
FO-29
1 24278U 96046B 16238.38394976 -.00000003 00000-0 32633-4 0 9992
2 24278 98.5830 154.5398 0350964 23.6257 338.0569 13.53070403988875
RS-22
1 27939U 03042A 16238.88706105 .00000156 00000-0 36488-4 0 9999
2 27939 97.8986 27.9127 0014433 84.8068 34.5429 14.66439613690034
AO-73
1 39444U 13066AE 16238.81382367 .00000374 00000-0 53285-4 0 9999
2 39444 97.6747 289.3777 0059646 152.0551 208.3887 14.81139095147883
EO-79
1 40025U 14033R 16238.79003469 .00000329 00000-0 41827-4 0 9990
2 40025 97.9219 144.2130 0012217 189.2738 170.8255 14.88086949118551
XW-2A
1 40903U 15049E 16238.78315160 .00002574 00000-0 73590-4 0 9992
2 40903 97.4447 254.7901 0014042 242.8946 117.0866 15.36860088 52244
XW-2C
1 40906U 15049H 16238.84657301 .00000973 00000-0 57380-4 0 9998
2 40906 97.4547 244.4339 0016404 151.2891 208.9247 15.13769292 51540
LILACSAT-2
1 40908U 15049K 16238.84133189 .00000591 00000-0 37373-4 0 9999
2 40908 97.4613 244.2730 0017339 146.1310 214.1032 15.12653588 51513
UO-11
1 14781U 84021B 16238.74369010 .00000097 00000-0 18380-4 0 9996
2 14781 97.7428 288.5939 0010061 88.1442 272.0924 14.82781025746561
LO-19
1 20442U 90005G 16237.85034054 .00000006 00000-0 18157-4 0 9996
2 20442 098.5453 171.8447 0010867 307.4779 052.5416 14.32826374389125
AO-27
1 22825U 93061C 16238.84677258 .00000007 00000-0 20074-4 0 9999
2 22825 98.7658 195.5479 0009446 111.1346 249.0847 14.29965126195198
IO-26
1 22826U 93061D 16238.80543188 .00000011 00000-0 21804-4 0 9997
2 22826 98.7602 195.6225 0010029 103.2612 256.9689 14.30290716195352
GO-32
1 25397U 98043D 16238.79256002 -.00000005 00000-0 16442-4 0 9998
2 25397 98.5713 181.9443 0002200 114.0305 246.1104 14.23600619941766
NO-44
1 26931U 01043C 16238.76885426 -.00000020 00000-0 24351-4 0 9997
2 26931 67.0515 133.3935 0005651 262.0389 98.0071 14.30420639778099
SO-50
1 27607U 02058C 16238.51631097 .00000316 00000-0 45117-4 0 9991
2 27607 64.5575 309.0214 0060610 201.5727 158.3303 14.75197386735494
CO-55
1 27844U 03031E 16238.19957947 .00000052 00000-0 43069-4 0 9996
2 27844 98.6932 245.4968 0010748 119.8874 240.3373 14.21970561682251
CO-57
1 27848U 03031J 16238.68312935 .00000044 00000-0 40130-4 0 9993
2 27848 98.7029 246.0988 0010576 126.4416 233.7738 14.21594707682218
CO-65
1 32785U 08021C 16238.71959535 .00000286 00000-0 37074-4 0 9991
2 32785 97.5980 270.0264 0014690 69.6981 290.5813 14.87634324450969
PRISM
1 33493U 09002B 16238.81188828 .00000254 00000-0 28991-4 0 9991
2 33493 98.2074 102.1561 0015744 342.5793 17.4881 14.95074633411630
TISAT-1
1 36799U 10035E 16238.83238984 .00000518 00000-0 59857-4 0 9990
2 36799 98.0359 350.2110 0011873 211.4620 148.5888 14.89923920331790
ALMASAT-1
1 38078U 12006B 16238.26003465 .00041389 38052-5 53685-3 0 9999
2 38078 69.4450 200.0506 0371224 1.9800 358.2765 15.06523477239972
DUCHIFAT-1
1 40021U 14033M 16238.68418250 .00000570 00000-0 65885-4 0 9990
2 40021 97.9252 145.3562 0012744 187.8568 172.2452 14.89414095118604
NANOSATCBR1
1 40024U 14033Q 16238.69295188 .00000486 00000-0 57915-4 0 9998
2 40024 97.9226 144.6761 0012034 187.7121 172.3913 14.88809253118579
DTUSAT-2
1 40030U 14033W 16238.72135316 .00000338 00000-0 43238-4 0 9994
2 40030 97.9196 143.5368 0011809 182.9467 177.1682 14.87720195118518
ANTELSAT
1 40034U 14033AA 16238.63468985 .00000287 00000-0 50765-4 0 9995
2 40034 97.8938 125.0949 0059463 161.4722 198.8672 14.73445334117409
MET-2/21
1 22782U 93055A 16238.66660959 .00000021 00000-0 57644-5 0 9994
2 22782 82.5461 258.0931 0022570 176.3486 314.2033 13.83790034160829
NOAA-15
1 25338U 98030A 16238.48897956 .00000028 00000-0 30865-4 0 9993
2 25338 98.7846 242.7824 0010382 351.5150 8.5852 14.25748794950865
NOAA-18
1 28654U 05018A 16238.49147930 .00000002 00000-0 26411-4 0 9996
2 28654 99.1979 247.2263 0014353 176.7908 183.3357 14.12300629580518
NOAA-19
1 33591U 09005A 16238.52671771 .00000113 00000-0 86643-4 0 9997
2 33591 99.0464 195.8911 0014623 27.7588 332.4360 14.12099804388921
HUBBLE
1 20580U 90037B 16238.90416071 .00000687 00000-0 31777-4 0 9992
2 20580 28.4695 158.2926 0002667 234.5783 201.9726 15.08463662245646
ISS
1 25544U 98067A 16238.96778683 .00006394 00000-0 10300-3 0 9993
2 25544 51.6447 69.8230 0003005 237.7530 274.3566 15.54328087 15846
CO-58
1 28895U 05043F 16237.75271753 .00000178 00000-0 43213-4 0 9993
2 28895 97.8378 48.2610 0017020 6.7694 353.3736 14.63239340577137
AAUSAT2
1 32788U 08021F 16238.06076292 .00000925 00000-0 93342-4 0 9992
2 32788 97.5980 278.6419 0013178 46.4119 313.8192 14.93345069451472
DO-64
1 32789U 08021G 16238.74877031 .00001434 00000-0 10928-3 0 9992
2 32789 97.6008 296.7486 0014115 34.5264 325.6876 15.03556589452453
CO-66
1 32791U 08021J 16238.77076660 .00000480 00000-0 55423-4 0 9997
2 32791 97.5985 273.4739 0014925 58.9856 301.2826 14.89860637451154
RS-30
1 32953U 08025A 16238.82300751 .00000021 00000-0 81791-4 0 9996
2 32953 82.4998 63.3413 0018561 208.3617 151.6454 12.43071007374726
JUGNU
1 37839U 11058B 16237.89116273 .00000311 00000-0 24147-4 0 9998
2 37839 19.9616 87.0103 0018986 157.4364 322.0468 14.12549879251750
SRMSAT
1 37841U 11058D 16237.95336231 .00000311 00000-0 25846-4 0 9993
2 37841 019.9717 122.2283 0011900 067.9449 039.1911 14.10548170251316
AO-71
1 37854U 11061E 16238.76390988 .00002362 00000-0 13736-3 0 9992
2 37854 101.6995 316.4814 0172344 228.4246 130.2082 15.02497995262542
HRBE
1 37855U 11061F 16238.76632874 .00002339 00000-0 13351-3 0 9993
2 37855 101.7116 314.5057 0185908 233.1610 125.2426 15.01422100262434
HORYU-2
1 38340U 12025D 16238.76992441 .00000294 00000-0 51695-4 0 9995
2 38340 98.3603 226.5788 0012364 145.5908 214.6103 14.75091975229733
RS-40
1 38735U 12041C 16238.79198505 .00000014 00000-0 28219-4 0 9999
2 38735 82.4786 148.3821 0016442 315.8796 44.0971 12.42572678185009
BEESAT-3
1 39134U 13015E 16238.77113266 .00001543 00000-0 89197-4 0 9994
2 39134 64.8705 98.9276 0012758 302.0561 57.9325 15.16290304184660
BEESAT-2
1 39136U 13015G 16238.75568245 .00002059 00000-0 11284-3 0 9999
2 39136 64.8716 105.8373 0012800 306.6096 53.4347 15.13891081184538
ZACUBE-1
1 39417U 13066B 16238.15202452 .00000296 00000-0 44182-4 0 9991
2 39417 97.6736 288.0561 0060318 156.3545 204.0461 14.80456463148978
TRITON-1
1 39427U 13066M 16238.30949832 .00000208 00000-0 41661-4 0 9991
2 39427 97.6631 267.1847 0113818 215.5249 143.8342 14.67240500147651
GOMX-1
1 39430U 13066Q 16238.67646567 .00000178 00000-0 41946-4 0 9996
2 39430 97.6665 254.3324 0150829 256.1748 102.2622 14.58652709146857
LO-74
1 39440U 13066AA 16238.06539630 .00000268 00000-0 44847-4 0 9995
2 39440 97.6678 279.5898 0081164 179.4644 180.6668 14.75214594148435
SPROUT
1 39770U 14029E 16238.74555176 .00000537 00000-0 68330-4 0 9991
2 39770 97.8727 335.2026 0008619 208.3550 151.7222 14.85544046122260
EO-80
1 40032U 14033Y 16238.68329903 .00000348 00000-0 44330-4 0 9993
2 40032 97.9202 143.5079 0011758 183.4938 176.6198 14.87653900118503
VELOX-1
1 40057U 14034E 16238.85359524 .00000434 00000-0 69510-4 0 9995
2 40057 98.1934 328.6988 0009767 286.7230 73.2900 14.76787621116168
